Year,Month,Day,Hour,Minute,Value (Times are PST for temperature in C)
2012,11,07,00,00,6.20
2012,11,07,00,01,6.20
2012,11,07,00,02,6.20
2012,11,07,00,03,6.30
2012,11,07,00,04,6.50
2012,11,07,00,05,6.70
2012,11,07,00,06,6.80
2012,11,07,00,07,7.00
2012,11,07,00,08,7.10
2012,11,07,00,09,7.20
2012,11,07,00,10,7.30
2012,11,07,00,11,7.30
2012,11,07,00,12,7.30
2012,11,07,00,13,7.30
2012,11,07,00,14,7.40
2012,11,07,00,15,7.40
2012,11,07,00,16,7.40
2012,11,07,00,17,7.40
2012,11,07,00,18,7.50
2012,11,07,00,19,7.50
2012,11,07,00,20,7.50
2012,11,07,00,21,7.60
2012,11,07,00,22,7.60
2012,11,07,00,23,7.50
2012,11,07,00,24,7.50
2012,11,07,00,25,7.40
2012,11,07,00,26,7.40
2012,11,07,00,27,7.30
2012,11,07,00,28,7.30
2012,11,07,00,29,7.20
2012,11,07,00,30,7.20
2012,11,07,00,31,7.10
2012,11,07,00,32,7.00
2012,11,07,00,33,6.90
2012,11,07,00,34,6.80
2012,11,07,00,35,6.70
2012,11,07,00,36,6.70
2012,11,07,00,37,6.60
2012,11,07,00,38,6.60
2012,11,07,00,39,6.60
2012,11,07,00,40,6.60
2012,11,07,00,41,6.60
2012,11,07,00,42,6.60
2012,11,07,00,43,6.60
2012,11,07,00,44,6.70
2012,11,07,00,45,6.80
2012,11,07,00,46,6.90
2012,11,07,00,47,7.00
2012,11,07,00,48,7.20
2012,11,07,00,49,7.30
2012,11,07,00,50,7.50
2012,11,07,00,51,7.70
2012,11,07,00,52,7.80
2012,11,07,00,53,8.00
2012,11,07,00,54,8.10
2012,11,07,00,55,8.30
2012,11,07,00,56,8.40
2012,11,07,00,57,8.40
2012,11,07,00,58,8.50
2012,11,07,00,59,8.50
2012,11,07,01,00,8.50
2012,11,07,01,01,8.50
2012,11,07,01,02,8.50
2012,11,07,01,03,8.50
2012,11,07,01,04,8.40
2012,11,07,01,05,8.40
2012,11,07,01,06,8.40
2012,11,07,01,07,8.40
2012,11,07,01,08,8.30
2012,11,07,01,09,8.30
2012,11,07,01,10,8.30
2012,11,07,01,11,8.30
2012,11,07,01,12,8.20
2012,11,07,01,13,8.20
2012,11,07,01,14,8.10
2012,11,07,01,15,8.10
2012,11,07,01,16,8.00
2012,11,07,01,17,7.90
2012,11,07,01,18,7.80
2012,11,07,01,19,7.70
2012,11,07,01,20,7.50
2012,11,07,01,21,7.40
2012,11,07,01,22,7.30
2012,11,07,01,23,7.20
2012,11,07,01,24,7.00
2012,11,07,01,25,6.90
2012,11,07,01,26,6.80
2012,11,07,01,27,6.70
2012,11,07,01,28,6.60
2012,11,07,01,29,6.60
2012,11,07,01,30,6.50
2012,11,07,01,31,6.50
2012,11,07,01,32,6.50
2012,11,07,01,33,6.50
2012,11,07,01,34,6.50
2012,11,07,01,35,6.40
2012,11,07,01,36,6.40
2012,11,07,01,37,6.30
2012,11,07,01,38,6.30
2012,11,07,01,39,6.40
2012,11,07,01,40,6.40
2012,11,07,01,41,6.50
2012,11,07,01,42,6.60
2012,11,07,01,43,6.70
2012,11,07,01,44,6.70
2012,11,07,01,45,6.80
2012,11,07,01,46,6.80
2012,11,07,01,47,6.90
2012,11,07,01,48,6.90
2012,11,07,01,49,6.90
2012,11,07,01,50,6.90
2012,11,07,01,51,6.90
2012,11,07,01,52,6.90
2012,11,07,01,53,7.00
2012,11,07,01,54,7.00
2012,11,07,01,55,7.10
2012,11,07,01,56,7.10
2012,11,07,01,57,7.20
2012,11,07,01,58,7.20
2012,11,07,01,59,7.30
2012,11,07,02,00,7.30
2012,11,07,02,01,7.30
2012,11,07,02,02,7.30
2012,11,07,02,03,7.20
2012,11,07,02,04,7.20
2012,11,07,02,05,7.20
2012,11,07,02,06,7.20
2012,11,07,02,07,7.10
2012,11,07,02,08,7.00
2012,11,07,02,09,7.00
2012,11,07,02,10,6.90
2012,11,07,02,11,6.90
2012,11,07,02,12,6.80
2012,11,07,02,13,6.80
2012,11,07,02,14,6.80
2012,11,07,02,15,6.80
2012,11,07,02,16,6.70
2012,11,07,02,17,6.70
2012,11,07,02,18,6.70
2012,11,07,02,19,6.60
2012,11,07,02,20,6.60
2012,11,07,02,21,6.50
2012,11,07,02,22,6.40
2012,11,07,02,23,6.30
2012,11,07,02,24,6.20
2012,11,07,02,25,6.10
2012,11,07,02,26,6.10
2012,11,07,02,27,6.00
2012,11,07,02,28,5.90
2012,11,07,02,29,5.90
2012,11,07,02,30,5.80
2012,11,07,02,31,5.70
2012,11,07,02,32,5.60
2012,11,07,02,33,5.50
2012,11,07,02,34,5.50
2012,11,07,02,35,5.40
2012,11,07,02,36,5.30
2012,11,07,02,37,5.30
2012,11,07,02,38,5.30
2012,11,07,02,39,5.30
2012,11,07,02,40,5.20
2012,11,07,02,41,5.20
2012,11,07,02,42,5.10
2012,11,07,02,43,5.10
2012,11,07,02,44,5.10
2012,11,07,02,45,5.10
2012,11,07,02,46,5.10
2012,11,07,02,47,5.10
2012,11,07,02,48,5.10
2012,11,07,02,49,5.10
2012,11,07,02,50,5.00
2012,11,07,02,51,4.80
2012,11,07,02,52,4.80
2012,11,07,02,53,4.80
2012,11,07,02,54,4.70
2012,11,07,02,55,4.70
2012,11,07,02,56,4.70
2012,11,07,02,57,4.70
2012,11,07,02,58,4.80
2012,11,07,02,59,4.80
2012,11,07,03,00,4.80
2012,11,07,03,01,4.80
2012,11,07,03,02,4.80
2012,11,07,03,03,4.80
2012,11,07,03,04,4.90
2012,11,07,03,05,4.90
2012,11,07,03,06,4.90
2012,11,07,03,07,5.00
2012,11,07,03,08,5.10
2012,11,07,03,09,5.20
2012,11,07,03,10,5.30
2012,11,07,03,11,5.40
2012,11,07,03,12,5.50
2012,11,07,03,13,5.50
2012,11,07,03,14,5.60
2012,11,07,03,15,5.60
2012,11,07,03,16,5.70
2012,11,07,03,17,5.80
2012,11,07,03,18,5.80
2012,11,07,03,19,5.80
2012,11,07,03,20,5.90
2012,11,07,03,21,5.90
2012,11,07,03,22,6.00
2012,11,07,03,23,6.10
2012,11,07,03,24,6.10
2012,11,07,03,25,6.20
2012,11,07,03,26,6.30
2012,11,07,03,27,6.40
2012,11,07,03,28,6.50
2012,11,07,03,29,6.50
2012,11,07,03,30,6.60
2012,11,07,03,31,6.50
2012,11,07,03,32,6.50
2012,11,07,03,33,6.50
2012,11,07,03,34,6.40
2012,11,07,03,35,6.40
2012,11,07,03,36,6.40
2012,11,07,03,37,6.30
2012,11,07,03,38,6.30
2012,11,07,03,39,6.20
2012,11,07,03,40,6.10
2012,11,07,03,41,6.00
2012,11,07,03,42,5.80
2012,11,07,03,43,5.70
2012,11,07,03,44,5.60
2012,11,07,03,45,5.50
2012,11,07,03,46,5.40
2012,11,07,03,47,5.40
2012,11,07,03,48,5.30
2012,11,07,03,49,5.30
2012,11,07,03,50,5.30
2012,11,07,03,51,5.20
2012,11,07,03,52,5.10
2012,11,07,03,53,5.10
2012,11,07,03,54,5.10
2012,11,07,03,55,5.00
2012,11,07,03,56,5.10
2012,11,07,03,57,5.10
2012,11,07,03,58,5.10
2012,11,07,03,59,5.10
2012,11,07,04,00,5.10
2012,11,07,04,01,5.20
2012,11,07,04,02,5.20
2012,11,07,04,03,5.20
2012,11,07,04,04,5.30
2012,11,07,04,05,5.30
2012,11,07,04,06,5.30
2012,11,07,04,07,5.40
2012,11,07,04,08,5.40
2012,11,07,04,09,5.50
2012,11,07,04,10,5.60
2012,11,07,04,11,5.70
2012,11,07,04,12,5.70
2012,11,07,04,13,5.80
2012,11,07,04,14,5.80
2012,11,07,04,15,5.90
2012,11,07,04,16,6.00
2012,11,07,04,17,6.10
2012,11,07,04,18,6.20
2012,11,07,04,19,6.20
2012,11,07,04,20,6.30
2012,11,07,04,21,6.40
2012,11,07,04,22,6.50
2012,11,07,04,23,6.50
2012,11,07,04,24,6.60
2012,11,07,04,25,6.60
2012,11,07,04,26,6.70
2012,11,07,04,27,6.70
2012,11,07,04,28,6.80
2012,11,07,04,29,6.80
2012,11,07,04,30,6.80
2012,11,07,04,31,6.80
2012,11,07,04,32,6.80
2012,11,07,04,33,6.70
2012,11,07,04,34,6.70
2012,11,07,04,35,6.80
2012,11,07,04,36,6.80
2012,11,07,04,37,6.80
2012,11,07,04,38,6.80
2012,11,07,04,39,6.80
2012,11,07,04,40,6.70
2012,11,07,04,41,6.70
2012,11,07,04,42,6.70
2012,11,07,04,43,6.60
2012,11,07,04,44,6.60
2012,11,07,04,45,6.60
2012,11,07,04,46,6.50
2012,11,07,04,47,6.50
2012,11,07,04,48,6.40
2012,11,07,04,49,6.40
2012,11,07,04,50,6.40
2012,11,07,04,51,6.30
2012,11,07,04,52,6.30
2012,11,07,04,53,6.30
2012,11,07,04,54,6.20
2012,11,07,04,55,6.20
2012,11,07,04,56,6.20
2012,11,07,04,57,6.20
2012,11,07,04,58,6.10
2012,11,07,04,59,6.00
2012,11,07,05,00,6.00
2012,11,07,05,01,5.90
2012,11,07,05,02,5.80
2012,11,07,05,03,5.70
2012,11,07,05,04,5.70
2012,11,07,05,05,5.60
2012,11,07,05,06,5.50
2012,11,07,05,07,5.50
2012,11,07,05,08,5.40
2012,11,07,05,09,5.30
2012,11,07,05,10,5.20
2012,11,07,05,11,5.10
2012,11,07,05,12,5.10
2012,11,07,05,13,5.00
2012,11,07,05,14,4.90
2012,11,07,05,15,4.90
2012,11,07,05,16,4.80
2012,11,07,05,17,4.70
2012,11,07,05,18,4.70
2012,11,07,05,19,4.70
2012,11,07,05,20,4.60
2012,11,07,05,21,4.60
2012,11,07,05,22,4.60
2012,11,07,05,23,4.60
2012,11,07,05,24,4.50
2012,11,07,05,25,4.50
2012,11,07,05,26,4.40
2012,11,07,05,27,4.40
2012,11,07,05,28,4.30
2012,11,07,05,29,4.30
2012,11,07,05,30,4.30
2012,11,07,05,31,4.40
2012,11,07,05,32,4.40
2012,11,07,05,33,4.50
2012,11,07,05,34,4.60
2012,11,07,05,35,4.60
2012,11,07,05,36,4.70
2012,11,07,05,37,4.60
2012,11,07,05,38,4.60
2012,11,07,05,39,4.60
2012,11,07,05,40,4.50
2012,11,07,05,41,4.50
2012,11,07,05,42,4.40
2012,11,07,05,43,4.40
2012,11,07,05,44,4.30
2012,11,07,05,45,4.20
2012,11,07,05,46,4.10
2012,11,07,05,47,4.10
2012,11,07,05,48,4.10
2012,11,07,05,49,4.10
2012,11,07,05,50,4.10
2012,11,07,05,51,4.10
2012,11,07,05,52,4.10
2012,11,07,05,53,4.20
2012,11,07,05,54,4.20
2012,11,07,05,55,4.20
2012,11,07,05,56,4.10
2012,11,07,05,57,4.10
2012,11,07,05,58,4.10
2012,11,07,05,59,4.00
2012,11,07,06,00,4.00
2012,11,07,06,01,3.90
2012,11,07,06,02,3.90
2012,11,07,06,03,3.90
2012,11,07,06,04,3.80
2012,11,07,06,05,3.80
2012,11,07,06,06,3.70
2012,11,07,06,07,3.70
2012,11,07,06,08,3.70
2012,11,07,06,09,3.60
2012,11,07,06,10,3.60
2012,11,07,06,11,3.60
2012,11,07,06,12,3.60
2012,11,07,06,13,3.60
2012,11,07,06,14,3.50
2012,11,07,06,15,3.50
2012,11,07,06,16,3.50
2012,11,07,06,17,3.40
2012,11,07,06,18,3.40
2012,11,07,06,19,3.40
2012,11,07,06,20,3.40
2012,11,07,06,21,3.30
2012,11,07,06,22,3.30
2012,11,07,06,23,3.30
2012,11,07,06,24,3.30
2012,11,07,06,25,3.30
2012,11,07,06,26,3.20
2012,11,07,06,27,3.20
2012,11,07,06,28,3.20
2012,11,07,06,29,3.20
2012,11,07,06,30,3.10
2012,11,07,06,31,3.10
2012,11,07,06,32,3.10
2012,11,07,06,33,3.10
2012,11,07,06,34,3.10
2012,11,07,06,35,3.10
2012,11,07,06,36,3.10
2012,11,07,06,37,3.10
2012,11,07,06,38,3.20
2012,11,07,06,39,3.20
2012,11,07,06,40,3.20
2012,11,07,06,41,3.20
2012,11,07,06,42,3.20
2012,11,07,06,43,3.10
2012,11,07,06,44,3.10
2012,11,07,06,45,3.10
2012,11,07,06,46,3.10
2012,11,07,06,47,3.00
2012,11,07,06,48,3.00
2012,11,07,06,49,3.00
2012,11,07,06,50,2.90
2012,11,07,06,51,3.00
2012,11,07,06,52,3.00
2012,11,07,06,53,3.00
2012,11,07,06,54,3.10
2012,11,07,06,55,3.10
2012,11,07,06,56,3.10
2012,11,07,06,57,3.10
2012,11,07,06,58,3.10
2012,11,07,06,59,3.10
2012,11,07,07,00,3.00
2012,11,07,07,01,3.00
2012,11,07,07,02,3.00
2012,11,07,07,03,3.10
2012,11,07,07,04,3.10
2012,11,07,07,05,3.10
2012,11,07,07,06,3.10
2012,11,07,07,07,3.10
2012,11,07,07,08,3.10
2012,11,07,07,09,3.10
2012,11,07,07,10,3.00
2012,11,07,07,11,3.00
2012,11,07,07,12,3.00
2012,11,07,07,13,2.90
2012,11,07,07,14,2.90
2012,11,07,07,15,2.90
2012,11,07,07,16,2.90
2012,11,07,07,17,2.90
2012,11,07,07,18,2.90
2012,11,07,07,19,2.90
2012,11,07,07,20,2.90
2012,11,07,07,21,2.90
2012,11,07,07,22,2.90
2012,11,07,07,23,2.90
2012,11,07,07,24,2.90
2012,11,07,07,25,2.90
2012,11,07,07,26,3.00
2012,11,07,07,27,3.00
2012,11,07,07,28,3.10
2012,11,07,07,29,3.10
2012,11,07,07,30,3.10
2012,11,07,07,31,3.10
2012,11,07,07,32,3.10
2012,11,07,07,33,3.10
2012,11,07,07,34,3.00
2012,11,07,07,35,3.00
2012,11,07,07,36,2.90
2012,11,07,07,37,2.90
2012,11,07,07,38,2.90
2012,11,07,07,39,3.00
2012,11,07,07,40,3.00
2012,11,07,07,41,3.00
2012,11,07,07,42,3.10
2012,11,07,07,43,3.10
2012,11,07,07,44,3.10
2012,11,07,07,45,3.20
2012,11,07,07,46,3.20
2012,11,07,07,47,3.20
2012,11,07,07,48,3.20
2012,11,07,07,49,3.30
2012,11,07,07,50,3.30
2012,11,07,07,51,3.30
2012,11,07,07,52,3.30
2012,11,07,07,53,3.40
2012,11,07,07,54,3.40
2012,11,07,07,55,3.40
2012,11,07,07,56,3.50
2012,11,07,07,57,3.50
2012,11,07,07,58,3.60
2012,11,07,07,59,3.60
2012,11,07,08,00,3.60
2012,11,07,08,01,3.60
2012,11,07,08,02,3.60
2012,11,07,08,03,3.60
2012,11,07,08,04,3.60
2012,11,07,08,05,3.60
2012,11,07,08,06,3.60
2012,11,07,08,07,3.70
2012,11,07,08,08,3.70
2012,11,07,08,09,3.70
2012,11,07,08,10,3.80
2012,11,07,08,11,3.80
2012,11,07,08,12,3.80
2012,11,07,08,13,3.90
2012,11,07,08,14,3.90
2012,11,07,08,15,3.90
2012,11,07,08,16,4.00
2012,11,07,08,17,4.00
2012,11,07,08,18,4.10
2012,11,07,08,19,4.20
2012,11,07,08,20,4.30
2012,11,07,08,21,4.40
2012,11,07,08,22,4.50
2012,11,07,08,23,4.60
2012,11,07,08,24,4.70
2012,11,07,08,25,4.80
2012,11,07,08,26,4.80
2012,11,07,08,27,4.80
2012,11,07,08,28,4.80
2012,11,07,08,29,4.80
2012,11,07,08,30,4.80
2012,11,07,08,31,4.90
2012,11,07,08,32,4.90
2012,11,07,08,33,4.90
2012,11,07,08,34,4.90
2012,11,07,08,35,4.90
2012,11,07,08,36,5.00
2012,11,07,08,37,5.00
2012,11,07,08,38,5.10
2012,11,07,08,39,5.10
2012,11,07,08,40,5.20
2012,11,07,08,41,5.20
2012,11,07,08,42,5.30
2012,11,07,08,43,5.40
2012,11,07,08,44,5.50
2012,11,07,08,45,5.60
2012,11,07,08,46,5.70
2012,11,07,08,47,5.80
2012,11,07,08,48,5.90
2012,11,07,08,49,5.90
2012,11,07,08,50,6.00
2012,11,07,08,51,6.20
2012,11,07,08,52,6.30
2012,11,07,08,53,6.40
2012,11,07,08,54,6.50
2012,11,07,08,55,6.60
2012,11,07,08,56,6.70
2012,11,07,08,57,6.80
2012,11,07,08,58,6.90
2012,11,07,08,59,7.10
2012,11,07,09,00,7.20
2012,11,07,09,01,7.30
2012,11,07,09,02,7.40
2012,11,07,09,03,7.50
2012,11,07,09,04,7.50
2012,11,07,09,05,7.60
2012,11,07,09,06,7.70
2012,11,07,09,07,7.80
2012,11,07,09,08,7.90
2012,11,07,09,09,8.00
2012,11,07,09,10,8.10
2012,11,07,09,11,8.20
2012,11,07,09,12,8.20
2012,11,07,09,13,8.30
2012,11,07,09,14,8.30
2012,11,07,09,15,8.40
2012,11,07,09,16,8.40
2012,11,07,09,17,8.50
2012,11,07,09,18,8.60
2012,11,07,09,19,8.70
2012,11,07,09,20,8.70
2012,11,07,09,21,8.80
2012,11,07,09,22,8.80
2012,11,07,09,23,8.80
2012,11,07,09,24,8.80
2012,11,07,09,25,8.80
2012,11,07,09,26,8.80
2012,11,07,09,27,8.90
2012,11,07,09,28,8.90
2012,11,07,09,29,9.00
2012,11,07,09,30,9.00
2012,11,07,09,31,9.10
2012,11,07,09,32,9.20
2012,11,07,09,33,9.30
2012,11,07,09,34,9.30
2012,11,07,09,35,9.40
2012,11,07,09,36,9.50
2012,11,07,09,37,9.50
2012,11,07,09,38,9.60
2012,11,07,09,39,9.60
2012,11,07,09,40,9.60
2012,11,07,09,41,9.60
2012,11,07,09,42,9.70
2012,11,07,09,43,9.70
2012,11,07,09,44,9.70
2012,11,07,09,45,9.80
2012,11,07,09,46,9.80
2012,11,07,09,47,9.90
2012,11,07,09,48,9.90
2012,11,07,09,49,10.00
2012,11,07,09,50,10.10
2012,11,07,09,51,10.10
2012,11,07,09,52,10.20
2012,11,07,09,53,10.30
2012,11,07,09,54,10.30
2012,11,07,09,55,10.40
2012,11,07,09,56,10.40
2012,11,07,09,57,10.40
2012,11,07,09,58,10.30
2012,11,07,09,59,10.30
2012,11,07,10,00,10.30
2012,11,07,10,01,10.20
2012,11,07,10,02,10.20
2012,11,07,10,03,10.10
2012,11,07,10,04,10.10
2012,11,07,10,05,10.10
2012,11,07,10,06,10.10
2012,11,07,10,07,10.10
2012,11,07,10,08,10.00
2012,11,07,10,09,10.00
2012,11,07,10,10,9.90
2012,11,07,10,11,9.80
2012,11,07,10,12,9.80
2012,11,07,10,13,9.80
2012,11,07,10,14,9.80
2012,11,07,10,15,9.80
2012,11,07,10,16,9.80
2012,11,07,10,17,9.70
2012,11,07,10,18,9.70
2012,11,07,10,19,9.70
2012,11,07,10,20,9.70
2012,11,07,10,21,9.80
2012,11,07,10,22,9.80
2012,11,07,10,23,9.80
2012,11,07,10,24,9.80
2012,11,07,10,25,9.90
2012,11,07,10,26,9.90
2012,11,07,10,27,10.00
2012,11,07,10,28,10.00
2012,11,07,10,29,10.10
2012,11,07,10,30,10.20
2012,11,07,10,31,10.20
2012,11,07,10,32,10.30
2012,11,07,10,33,10.30
2012,11,07,10,34,10.30
2012,11,07,10,35,10.30
2012,11,07,10,36,10.30
2012,11,07,10,37,10.30
2012,11,07,10,38,10.40
2012,11,07,10,39,10.50
2012,11,07,10,40,10.50
2012,11,07,10,41,10.60
2012,11,07,10,42,10.60
2012,11,07,10,43,10.60
2012,11,07,10,44,10.60
2012,11,07,10,45,10.60
2012,11,07,10,46,10.60
2012,11,07,10,47,10.60
2012,11,07,10,48,10.60
2012,11,07,10,49,10.60
2012,11,07,10,50,10.60
2012,11,07,10,51,10.50
2012,11,07,10,52,10.50
2012,11,07,10,53,10.40
2012,11,07,10,54,10.40
2012,11,07,10,55,10.40
2012,11,07,10,56,10.30
2012,11,07,10,57,10.30
2012,11,07,10,58,10.30
2012,11,07,10,59,10.20
2012,11,07,11,00,10.20
2012,11,07,11,01,10.20
2012,11,07,11,02,10.10
2012,11,07,11,03,10.10
2012,11,07,11,04,10.20
2012,11,07,11,05,10.20
2012,11,07,11,06,10.30
2012,11,07,11,07,10.30
2012,11,07,11,08,10.30
2012,11,07,11,09,10.30
2012,11,07,11,10,10.30
2012,11,07,11,11,10.30
2012,11,07,11,12,10.30
2012,11,07,11,13,10.40
2012,11,07,11,14,10.50
2012,11,07,11,15,10.50
2012,11,07,11,16,10.60
2012,11,07,11,17,10.70
2012,11,07,11,18,10.70
2012,11,07,11,19,10.80
2012,11,07,11,20,10.80
2012,11,07,11,21,10.90
2012,11,07,11,22,11.00
2012,11,07,11,23,11.10
2012,11,07,11,24,11.10
2012,11,07,11,25,11.20
2012,11,07,11,26,11.20
2012,11,07,11,27,11.10
2012,11,07,11,28,11.00
2012,11,07,11,29,10.90
2012,11,07,11,30,10.70
2012,11,07,11,31,10.50
2012,11,07,11,32,10.40
2012,11,07,11,33,10.30
2012,11,07,11,34,10.20
2012,11,07,11,35,10.30
2012,11,07,11,36,10.30
2012,11,07,11,37,10.30
2012,11,07,11,38,10.30
2012,11,07,11,39,10.40
2012,11,07,11,40,10.40
2012,11,07,11,41,10.50
2012,11,07,11,42,10.60
2012,11,07,11,43,10.60
2012,11,07,11,44,10.60
2012,11,07,11,45,10.60
2012,11,07,11,46,10.70
2012,11,07,11,47,10.70
2012,11,07,11,48,10.80
2012,11,07,11,49,10.80
2012,11,07,11,50,10.80
2012,11,07,11,51,10.90
2012,11,07,11,52,10.90
2012,11,07,11,53,10.80
2012,11,07,11,54,10.80
2012,11,07,11,55,10.80
2012,11,07,11,56,10.70
2012,11,07,11,57,10.70
2012,11,07,11,58,10.70
2012,11,07,11,59,10.70
2012,11,07,12,00,10.60
2012,11,07,12,01,10.60
2012,11,07,12,02,10.60
2012,11,07,12,03,10.50
2012,11,07,12,04,10.50
2012,11,07,12,05,10.50
2012,11,07,12,06,10.50
2012,11,07,12,07,10.50
2012,11,07,12,08,10.50
2012,11,07,12,09,10.60
2012,11,07,12,10,10.60
2012,11,07,12,11,10.60
2012,11,07,12,12,10.60
2012,11,07,12,13,10.60
2012,11,07,12,14,10.60
2012,11,07,12,15,10.70
2012,11,07,12,16,10.70
2012,11,07,12,17,10.70
2012,11,07,12,18,10.80
2012,11,07,12,19,10.80
2012,11,07,12,20,10.80
2012,11,07,12,21,10.80
2012,11,07,12,22,10.80
2012,11,07,12,23,10.80
2012,11,07,12,24,10.80
2012,11,07,12,25,10.80
2012,11,07,12,26,10.70
2012,11,07,12,27,10.70
2012,11,07,12,28,10.70
2012,11,07,12,29,10.70
2012,11,07,12,30,10.60
2012,11,07,12,31,10.60
2012,11,07,12,32,10.60
2012,11,07,12,33,10.50
2012,11,07,12,34,10.50
2012,11,07,12,35,10.40
2012,11,07,12,36,10.40
2012,11,07,12,37,10.30
2012,11,07,12,38,10.30
2012,11,07,12,39,10.30
2012,11,07,12,40,10.30
2012,11,07,12,41,10.30
2012,11,07,12,42,10.40
2012,11,07,12,43,10.40
2012,11,07,12,44,10.50
2012,11,07,12,45,10.50
2012,11,07,12,46,10.50
2012,11,07,12,47,10.50
2012,11,07,12,48,10.60
2012,11,07,12,49,10.60
2012,11,07,12,50,10.60
2012,11,07,12,51,10.60
2012,11,07,12,52,10.70
2012,11,07,12,53,10.70
2012,11,07,12,54,10.60
2012,11,07,12,55,10.60
2012,11,07,12,56,10.60
2012,11,07,12,57,10.60
2012,11,07,12,58,10.50
2012,11,07,12,59,10.50
2012,11,07,13,00,10.60
2012,11,07,13,01,10.60
2012,11,07,13,02,10.70
2012,11,07,13,03,10.70
2012,11,07,13,04,10.70
2012,11,07,13,05,10.70
2012,11,07,13,06,10.70
2012,11,07,13,07,10.70
2012,11,07,13,08,10.70
2012,11,07,13,09,10.60
2012,11,07,13,10,10.60
2012,11,07,13,11,10.60
2012,11,07,13,12,10.60
2012,11,07,13,13,10.60
2012,11,07,13,14,10.60
2012,11,07,13,15,10.60
2012,11,07,13,16,10.60
2012,11,07,13,17,10.60
2012,11,07,13,18,10.60
2012,11,07,13,19,10.60
2012,11,07,13,20,10.60
2012,11,07,13,21,10.70
2012,11,07,13,22,10.70
2012,11,07,13,23,10.70
2012,11,07,13,24,10.70
2012,11,07,13,25,10.70
2012,11,07,13,26,10.70
2012,11,07,13,27,10.70
2012,11,07,13,28,10.70
2012,11,07,13,29,10.70
2012,11,07,13,30,10.60
2012,11,07,13,31,10.60
2012,11,07,13,32,10.60
2012,11,07,13,33,10.60
2012,11,07,13,34,10.60
2012,11,07,13,35,10.60
2012,11,07,13,36,10.50
2012,11,07,13,37,10.50
2012,11,07,13,38,10.40
2012,11,07,13,39,10.40
2012,11,07,13,40,10.40
2012,11,07,13,41,10.40
2012,11,07,13,42,10.40
2012,11,07,13,43,10.40
2012,11,07,13,44,10.40
2012,11,07,13,45,10.40
2012,11,07,13,46,10.50
2012,11,07,13,47,10.50
2012,11,07,13,48,10.50
2012,11,07,13,49,10.50
2012,11,07,13,50,10.60
2012,11,07,13,51,10.60
2012,11,07,13,52,10.60
2012,11,07,13,53,10.60
2012,11,07,13,54,10.60
2012,11,07,13,55,10.60
2012,11,07,13,56,10.60
2012,11,07,13,57,10.60
2012,11,07,13,58,10.60
2012,11,07,13,59,10.60
2012,11,07,14,00,10.50
2012,11,07,14,01,10.50
2012,11,07,14,02,10.50
2012,11,07,14,03,10.50
2012,11,07,14,04,10.50
2012,11,07,14,05,10.50
2012,11,07,14,06,10.50
2012,11,07,14,07,10.50
2012,11,07,14,08,10.50
2012,11,07,14,09,10.50
2012,11,07,14,10,10.50
2012,11,07,14,11,10.50
2012,11,07,14,12,10.50
2012,11,07,14,13,10.50
2012,11,07,14,14,10.40
2012,11,07,14,15,10.40
2012,11,07,14,16,10.40
2012,11,07,14,17,10.40
2012,11,07,14,18,10.40
2012,11,07,14,19,10.40
2012,11,07,14,20,10.40
2012,11,07,14,21,10.40
2012,11,07,14,22,10.40
2012,11,07,14,23,10.40
2012,11,07,14,24,10.40
2012,11,07,14,25,10.40
2012,11,07,14,26,10.40
2012,11,07,14,27,10.40
2012,11,07,14,28,10.40
2012,11,07,14,29,10.30
2012,11,07,14,30,10.30
2012,11,07,14,31,10.20
2012,11,07,14,32,10.20
2012,11,07,14,33,10.20
2012,11,07,14,34,10.20
2012,11,07,14,35,10.20
2012,11,07,14,36,10.20
2012,11,07,14,37,10.20
2012,11,07,14,38,10.20
2012,11,07,14,39,10.30
2012,11,07,14,40,10.30
2012,11,07,14,41,10.20
2012,11,07,14,42,10.20
2012,11,07,14,43,10.20
2012,11,07,14,44,10.20
2012,11,07,14,45,10.10
2012,11,07,14,46,10.10
2012,11,07,14,47,10.10
2012,11,07,14,48,10.10
2012,11,07,14,49,10.10
2012,11,07,14,50,10.10
2012,11,07,14,51,10.10
2012,11,07,14,52,10.10
2012,11,07,14,53,10.10
2012,11,07,14,54,10.10
2012,11,07,14,55,10.10
2012,11,07,14,56,10.10
2012,11,07,14,57,10.10
2012,11,07,14,58,10.10
2012,11,07,14,59,10.10
2012,11,07,15,00,10.10
2012,11,07,15,01,10.10
2012,11,07,15,02,10.10
2012,11,07,15,03,10.10
2012,11,07,15,04,10.10
2012,11,07,15,05,10.10
2012,11,07,15,06,10.10
2012,11,07,15,07,10.10
2012,11,07,15,08,10.10
2012,11,07,15,09,10.10
2012,11,07,15,10,10.10
2012,11,07,15,11,10.00
2012,11,07,15,12,10.00
2012,11,07,15,13,10.00
2012,11,07,15,14,9.90
2012,11,07,15,15,9.90
2012,11,07,15,16,9.90
2012,11,07,15,17,9.90
2012,11,07,15,18,9.90
2012,11,07,15,19,9.90
2012,11,07,15,20,9.90
2012,11,07,15,21,9.90
2012,11,07,15,22,9.90
2012,11,07,15,23,10.00
2012,11,07,15,24,10.00
2012,11,07,15,25,10.00
2012,11,07,15,26,10.00
2012,11,07,15,27,10.00
2012,11,07,15,28,10.00
2012,11,07,15,29,10.00
2012,11,07,15,30,10.10
2012,11,07,15,31,10.10
2012,11,07,15,32,10.10
2012,11,07,15,33,10.10
2012,11,07,15,34,10.10
2012,11,07,15,35,10.10
2012,11,07,15,36,10.10
2012,11,07,15,37,10.10
2012,11,07,15,38,10.10
2012,11,07,15,39,10.10
2012,11,07,15,40,10.10
2012,11,07,15,41,10.10
2012,11,07,15,42,10.20
2012,11,07,15,43,10.20
2012,11,07,15,44,10.20
2012,11,07,15,45,10.20
2012,11,07,15,46,10.20
2012,11,07,15,47,10.20
2012,11,07,15,48,10.10
2012,11,07,15,49,10.10
2012,11,07,15,50,10.10
2012,11,07,15,51,10.10
2012,11,07,15,52,10.10
2012,11,07,15,53,10.10
2012,11,07,15,54,10.10
2012,11,07,15,55,10.10
2012,11,07,15,56,10.00
2012,11,07,15,57,10.00
2012,11,07,15,58,10.00
2012,11,07,15,59,10.00
2012,11,07,16,00,9.90
2012,11,07,16,01,9.90
2012,11,07,16,02,9.90
2012,11,07,16,03,9.90
2012,11,07,16,04,9.80
2012,11,07,16,05,9.80
2012,11,07,16,06,9.70
2012,11,07,16,07,9.70
2012,11,07,16,08,9.70
2012,11,07,16,09,9.60
2012,11,07,16,10,9.60
2012,11,07,16,11,9.50
2012,11,07,16,12,9.50
2012,11,07,16,13,9.40
2012,11,07,16,14,9.30
2012,11,07,16,15,9.30
2012,11,07,16,16,9.20
2012,11,07,16,17,9.20
2012,11,07,16,18,9.10
2012,11,07,16,19,9.10
2012,11,07,16,20,9.00
2012,11,07,16,21,9.00
2012,11,07,16,22,8.90
2012,11,07,16,23,8.90
2012,11,07,16,24,8.90
2012,11,07,16,25,8.90
2012,11,07,16,26,8.90
2012,11,07,16,27,8.80
2012,11,07,16,28,8.80
2012,11,07,16,29,8.80
2012,11,07,16,30,8.80
2012,11,07,16,31,8.70
2012,11,07,16,32,8.70
2012,11,07,16,33,8.60
2012,11,07,16,34,8.60
2012,11,07,16,35,8.50
2012,11,07,16,36,8.50
2012,11,07,16,37,8.40
2012,11,07,16,38,8.40
2012,11,07,16,39,8.30
2012,11,07,16,40,8.30
2012,11,07,16,41,8.30
2012,11,07,16,42,8.20
2012,11,07,16,43,8.20
2012,11,07,16,44,8.10
2012,11,07,16,45,8.10
2012,11,07,16,46,8.10
2012,11,07,16,47,8.00
2012,11,07,16,48,8.00
2012,11,07,16,49,8.00
2012,11,07,16,50,7.90
2012,11,07,16,51,7.90
2012,11,07,16,52,7.90
2012,11,07,16,53,7.90
2012,11,07,16,54,7.90
2012,11,07,16,55,7.90
2012,11,07,16,56,7.80
2012,11,07,16,57,7.80
2012,11,07,16,58,7.80
2012,11,07,16,59,7.80
2012,11,07,17,00,7.80
2012,11,07,17,01,7.70
2012,11,07,17,02,7.70
2012,11,07,17,03,7.70
2012,11,07,17,04,7.70
2012,11,07,17,05,7.60
2012,11,07,17,06,7.60
2012,11,07,17,07,7.60
2012,11,07,17,08,7.60
2012,11,07,17,09,7.60
2012,11,07,17,10,7.60
2012,11,07,17,11,7.60
2012,11,07,17,12,7.60
2012,11,07,17,13,7.60
2012,11,07,17,14,7.70
2012,11,07,17,15,7.70
2012,11,07,17,16,7.70
2012,11,07,17,17,7.70
2012,11,07,17,18,7.80
2012,11,07,17,19,7.80
2012,11,07,17,20,7.80
2012,11,07,17,21,7.80
2012,11,07,17,22,7.80
2012,11,07,17,23,7.80
2012,11,07,17,24,7.80
2012,11,07,17,25,7.90
2012,11,07,17,26,7.90
2012,11,07,17,27,7.90
2012,11,07,17,28,7.90
2012,11,07,17,29,7.90
2012,11,07,17,30,7.90
2012,11,07,17,31,7.90
2012,11,07,17,32,7.90
2012,11,07,17,33,7.90
2012,11,07,17,34,7.90
2012,11,07,17,35,7.90
2012,11,07,17,36,7.90
2012,11,07,17,37,7.80
2012,11,07,17,38,7.80
2012,11,07,17,39,7.80
2012,11,07,17,40,7.80
2012,11,07,17,41,7.80
2012,11,07,17,42,7.80
2012,11,07,17,43,7.80
2012,11,07,17,44,7.80
2012,11,07,17,45,7.80
2012,11,07,17,46,7.80
2012,11,07,17,47,7.80
2012,11,07,17,48,7.80
2012,11,07,17,49,7.80
2012,11,07,17,50,7.80
2012,11,07,17,51,7.80